Time,TemperatureF,DewpointF,PressureIn,WindDirection,WindDirectionDegrees,WindSpeedMPH,WindSpeedGustMPH,Humidity,HourlyPrecipIn,Conditions,Clouds,dailyrainin,SoftwareType,DateUTC
2013-03-11 00:00:00,31.8,28.1,30.42,SW,229,5.0,6.0,86,0.00,,,0.00,Wunderground v.1.15,2013-03-11 04:00:00,
2013-03-11 00:05:00,31.7,28.3,30.41,SW,224,5.0,6.0,87,0.00,,,0.00,Wunderground v.1.15,2013-03-11 04:05:00,
2013-03-11 00:15:00,31.5,28.4,30.41,SW,226,5.0,14.0,88,0.00,,,0.00,Wunderground v.1.15,2013-03-11 04:15:00,
2013-03-11 00:20:00,31.5,28.4,30.41,SW,221,6.0,6.0,88,0.00,,,0.00,Wunderground v.1.15,2013-03-11 04:20:00,
2013-03-11 00:25:00,31.6,28.5,30.42,WSW,240,6.0,6.0,88,0.00,,,0.00,Wunderground v.1.15,2013-03-11 04:25:00,
2013-03-11 00:30:00,31.6,28.5,30.41,SSW,193,5.0,5.0,88,0.00,,,0.00,Wunderground v.1.15,2013-03-11 04:30:00,
2013-03-11 00:35:00,31.7,28.6,30.41,SW,228,3.0,5.0,88,0.00,,,0.00,Wunderground v.1.15,2013-03-11 04:35:00,
2013-03-11 00:40:00,31.7,28.6,30.42,WSW,244,3.0,3.0,88,0.00,,,0.00,Wunderground v.1.15,2013-03-11 04:40:00,
2013-03-11 00:50:00,31.7,28.6,30.42,SSW,211,5.0,5.0,88,0.00,,,0.00,Wunderground v.1.15,2013-03-11 04:50:00,
2013-03-11 00:55:00,31.7,28.6,30.41,WSW,252,4.0,8.0,88,0.00,,,0.00,Wunderground v.1.15,2013-03-11 04:55:00,
2013-03-11 01:00:00,31.7,28.6,30.42,WSW,244,4.0,11.0,88,0.00,,,0.00,Wunderground v.1.15,2013-03-11 05:00:00,
2013-03-11 01:05:00,31.7,28.6,30.42,SSW,207,5.0,11.0,88,0.00,,,0.00,Wunderground v.1.15,2013-03-11 05:05:00,
2013-03-11 01:10:00,31.7,28.6,30.41,SW,221,6.0,7.0,88,0.00,,,0.00,Wunderground v.1.15,2013-03-11 05:10:00,
2013-03-11 01:20:00,31.6,28.7,30.41,WNW,290,6.0,11.0,89,0.00,,,0.00,Wunderground v.1.15,2013-03-11 05:20:00,
2013-03-11 01:25:00,31.6,28.7,30.41,WSW,243,6.0,11.0,89,0.00,,,0.00,Wunderground v.1.15,2013-03-11 05:25:00,
2013-03-11 01:30:00,31.5,28.6,30.41,SW,223,6.0,6.0,89,0.00,,,0.00,Wunderground v.1.15,2013-03-11 05:30:00,
2013-03-11 01:35:00,31.5,28.6,30.41,WSW,250,7.0,7.0,89,0.00,,,0.00,Wunderground v.1.15,2013-03-11 05:35:00,
2013-03-11 01:40:00,31.5,28.6,30.41,SW,231,7.0,7.0,89,0.00,,,0.00,Wunderground v.1.15,2013-03-11 05:40:00,
2013-03-11 01:45:00,31.5,28.6,30.41,WSW,256,6.0,7.0,89,0.00,,,0.00,Wunderground v.1.15,2013-03-11 05:45:00,
2013-03-11 01:50:00,31.5,28.6,30.41,West,273,5.0,7.0,89,0.00,,,0.00,Wunderground v.1.15,2013-03-11 05:50:00,
2013-03-11 01:55:00,31.6,28.7,30.40,WSW,242,6.0,7.0,89,0.00,,,0.00,Wunderground v.1.15,2013-03-11 05:55:00,
2013-03-11 02:00:00,31.7,28.8,30.40,SW,234,5.0,5.0,89,0.00,,,0.00,Wunderground v.1.15,2013-03-11 06:00:00,
2013-03-11 02:05:00,31.7,28.8,30.40,WSW,247,5.0,6.0,89,0.00,,,0.00,Wunderground v.1.15,2013-03-11 06:05:00,
2013-03-11 02:15:00,31.7,28.8,30.39,WSW,247,6.0,6.0,89,0.00,,,0.00,Wunderground v.1.15,2013-03-11 06:15:00,
2013-03-11 02:25:00,32.0,29.1,30.39,WSW,242,5.0,6.0,89,0.00,,,0.00,Wunderground v.1.15,2013-03-11 06:25:00,
2013-03-11 02:30:00,32.1,29.2,30.38,SSE,160,4.0,4.0,89,0.00,,,0.00,Wunderground v.1.15,2013-03-11 06:30:00,
2013-03-11 02:35:00,32.3,29.1,30.38,SSW,198,3.0,4.0,88,0.00,,,0.00,Wunderground v.1.15,2013-03-11 06:35:00,
2013-03-11 02:45:00,32.6,29.4,30.38,SW,228,4.0,6.0,88,0.00,,,0.00,Wunderground v.1.15,2013-03-11 06:45:00,
2013-03-11 02:50:00,32.7,29.5,30.38,WSW,243,5.0,5.0,88,0.00,,,0.00,Wunderground v.1.15,2013-03-11 06:50:00,
2013-03-11 02:55:00,32.7,29.5,30.37,WSW,252,5.0,5.0,88,0.00,,,0.00,Wunderground v.1.15,2013-03-11 06:55:00,
2013-03-11 03:00:00,32.9,29.5,30.37,SSW,197,5.0,5.0,87,0.00,,,0.00,Wunderground v.1.15,2013-03-11 07:00:00,
2013-03-11 03:05:00,32.9,29.5,30.36,SW,236,5.0,5.0,87,0.00,,,0.00,Wunderground v.1.15,2013-03-11 07:05:00,
2013-03-11 03:10:00,32.9,29.5,30.36,SW,232,5.0,5.0,87,0.00,,,0.00,Wunderground v.1.15,2013-03-11 07:10:00,
2013-03-11 03:15:00,32.9,29.5,30.36,SW,234,4.0,5.0,87,0.00,,,0.00,Wunderground v.1.15,2013-03-11 07:15:00,
2013-03-11 03:20:00,33.0,29.6,30.36,SW,235,3.0,3.0,87,0.00,,,0.00,Wunderground v.1.15,2013-03-11 07:20:00,
2013-03-11 03:25:00,32.9,29.5,30.36,SW,227,3.0,3.0,87,0.00,,,0.00,Wunderground v.1.15,2013-03-11 07:25:00,
2013-03-11 03:30:00,32.8,29.4,30.36,SW,219,3.0,3.0,87,0.00,,,0.00,Wunderground v.1.15,2013-03-11 07:30:00,
2013-03-11 03:35:00,32.8,29.4,30.35,South,178,3.0,6.0,87,0.00,,,0.00,Wunderground v.1.15,2013-03-11 07:35:00,
2013-03-11 03:40:00,32.7,29.5,30.35,SW,215,2.0,3.0,88,0.00,,,0.00,Wunderground v.1.15,2013-03-11 07:40:00,
2013-03-11 03:45:00,32.7,29.5,30.34,WSW,246,2.0,3.0,88,0.00,,,0.00,Wunderground v.1.15,2013-03-11 07:45:00,
2013-03-11 03:55:00,32.9,29.5,30.34,SW,236,4.0,6.0,87,0.00,,,0.00,Wunderground v.1.15,2013-03-11 07:55:00,
2013-03-11 04:00:00,32.9,29.5,30.33,SW,215,5.0,5.0,87,0.00,,,0.00,Wunderground v.1.15,2013-03-11 08:00:00,
2013-03-11 04:05:00,33.0,29.6,30.34,SSW,192,6.0,6.0,87,0.00,,,0.00,Wunderground v.1.15,2013-03-11 08:05:00,
2013-03-11 04:15:00,32.9,29.5,30.33,SW,220,7.0,7.0,87,0.00,,,0.00,Wunderground v.1.15,2013-03-11 08:15:00,
2013-03-11 04:20:00,32.9,29.5,30.33,SW,217,5.0,5.0,87,0.00,,,0.00,Wunderground v.1.15,2013-03-11 08:20:00,
2013-03-11 04:25:00,32.9,29.5,30.33,North,10,3.0,5.0,87,0.00,,,0.00,Wunderground v.1.15,2013-03-11 08:25:00,
2013-03-11 04:30:00,32.9,29.5,30.33,WNW,300,2.0,3.0,87,0.00,,,0.00,Wunderground v.1.15,2013-03-11 08:30:00,
2013-03-11 04:35:00,32.9,29.5,30.34,SW,229,3.0,4.0,87,0.00,,,0.00,Wunderground v.1.15,2013-03-11 08:35:00,
2013-03-11 04:40:00,32.8,29.6,30.33,SSW,213,4.0,6.0,88,0.00,,,0.00,Wunderground v.1.15,2013-03-11 08:40:00,
2013-03-11 04:45:00,32.7,29.5,30.33,SW,234,4.0,6.0,88,0.00,,,0.00,Wunderground v.1.15,2013-03-11 08:45:00,
2013-03-11 04:50:00,32.6,29.4,30.33,SW,229,4.0,6.0,88,0.00,,,0.00,Wunderground v.1.15,2013-03-11 08:50:00,
2013-03-11 04:55:00,32.7,29.5,30.32,SW,223,5.0,6.0,88,0.00,,,0.00,Wunderground v.1.15,2013-03-11 08:55:00,
2013-03-11 05:00:00,32.7,29.5,30.32,South,191,3.0,3.0,88,0.00,,,0.00,Wunderground v.1.15,2013-03-11 09:00:00,
2013-03-11 05:05:00,32.6,29.4,30.32,South,186,3.0,3.0,88,0.00,,,0.00,Wunderground v.1.15,2013-03-11 09:05:00,
2013-03-11 05:10:00,32.7,29.5,30.32,West,276,4.0,4.0,88,0.00,,,0.00,Wunderground v.1.15,2013-03-11 09:10:00,
2013-03-11 05:15:00,32.6,29.4,30.32,SW,228,2.0,4.0,88,0.00,,,0.00,Wunderground v.1.15,2013-03-11 09:15:00,
2013-03-11 05:20:00,32.7,29.5,30.32,WSW,246,2.0,2.0,88,0.00,,,0.00,Wunderground v.1.15,2013-03-11 09:20:00,
2013-03-11 05:30:00,32.7,29.5,30.32,ENE,71,4.0,4.0,88,0.00,,,0.00,Wunderground v.1.15,2013-03-11 09:30:00,
2013-03-11 05:35:00,32.8,29.6,30.32,NNW,328,2.0,4.0,88,0.00,,,0.00,Wunderground v.1.15,2013-03-11 09:35:00,
2013-03-11 05:40:00,32.7,29.5,30.32,WSW,252,2.0,2.0,88,0.00,,,0.00,Wunderground v.1.15,2013-03-11 09:40:00,
2013-03-11 05:45:00,32.6,29.4,30.32,WNW,282,3.0,3.0,88,0.00,,,0.00,Wunderground v.1.15,2013-03-11 09:45:00,
2013-03-11 05:50:00,32.5,29.3,30.32,NNW,339,3.0,5.0,88,0.00,,,0.00,Wunderground v.1.15,2013-03-11 09:50:00,
2013-03-11 05:55:00,32.5,29.6,30.32,NNW,327,2.0,5.0,89,0.00,,,0.00,Wunderground v.1.15,2013-03-11 09:55:00,
2013-03-11 06:00:00,32.4,29.2,30.33,NNW,339,2.0,2.0,88,0.00,,,0.00,Wunderground v.1.15,2013-03-11 10:00:00,
2013-03-11 06:05:00,32.3,29.4,30.32,SSW,211,2.0,2.0,89,0.00,,,0.00,Wunderground v.1.15,2013-03-11 10:05:00,
2013-03-11 06:10:00,32.2,29.3,30.32,SW,233,2.0,2.0,89,0.00,,,0.00,Wunderground v.1.15,2013-03-11 10:10:00,
2013-03-11 06:15:00,32.1,29.2,30.33,WSW,246,2.0,2.0,89,0.00,,,0.00,Wunderground v.1.15,2013-03-11 10:15:00,
2013-03-11 06:20:00,31.9,29.0,30.33,West,269,4.0,7.0,89,0.00,,,0.00,Wunderground v.1.15,2013-03-11 10:20:00,
2013-03-11 06:25:00,31.8,29.2,30.33,West,273,4.0,7.0,90,0.00,,,0.00,Wunderground v.1.15,2013-03-11 10:25:00,
2013-03-11 06:30:00,31.7,29.1,30.32,SW,218,5.0,5.0,90,0.00,,,0.00,Wunderground v.1.15,2013-03-11 10:30:00,
2013-03-11 06:35:00,31.9,29.3,30.32,SSW,208,6.0,6.0,90,0.00,,,0.00,Wunderground v.1.15,2013-03-11 10:35:00,
2013-03-11 06:40:00,32.1,29.5,30.32,SSW,213,5.0,5.0,90,0.00,,,0.00,Wunderground v.1.15,2013-03-11 10:40:00,
2013-03-11 06:45:00,32.1,29.2,30.33,WSW,257,5.0,5.0,89,0.00,,,0.00,Wunderground v.1.15,2013-03-11 10:45:00,
2013-03-11 06:55:00,31.9,29.3,30.33,SW,215,4.0,6.0,90,0.00,,,0.00,Wunderground v.1.15,2013-03-11 10:55:00,
2013-03-11 07:00:00,31.9,29.3,30.33,WSW,246,4.0,10.0,90,0.00,,,0.00,Wunderground v.1.15,2013-03-11 11:00:00,
2013-03-11 07:05:00,32.0,29.4,30.33,SW,217,5.0,10.0,90,0.00,,,0.00,Wunderground v.1.15,2013-03-11 11:05:00,
2013-03-11 07:10:00,32.1,29.5,30.33,SW,230,7.0,7.0,90,0.00,,,0.00,Wunderground v.1.15,2013-03-11 11:10:00,
2013-03-11 07:15:00,32.5,29.6,30.32,SW,220,7.0,7.0,89,0.00,,,0.00,Wunderground v.1.15,2013-03-11 11:15:00,
2013-03-11 07:20:00,32.8,29.9,30.32,SW,234,7.0,7.0,89,0.00,,,0.00,Wunderground v.1.15,2013-03-11 11:20:00,
2013-03-11 07:25:00,33.0,29.8,30.32,SSW,204,6.0,7.0,88,0.00,,,0.00,Wunderground v.1.15,2013-03-11 11:25:00,
2013-03-11 07:30:00,33.1,29.7,30.32,SW,232,5.0,5.0,87,0.00,,,0.00,Wunderground v.1.15,2013-03-11 11:30:00,
2013-03-11 07:35:00,33.4,29.9,30.32,SSW,196,4.0,5.0,87,0.00,,,0.00,Wunderground v.1.15,2013-03-11 11:35:00,
2013-03-11 07:40:00,33.6,30.1,30.32,WSW,253,3.0,3.0,87,0.00,,,0.00,Wunderground v.1.15,2013-03-11 11:40:00,
2013-03-11 07:45:00,33.7,30.0,30.33,SW,226,3.0,3.0,86,0.00,,,0.00,Wunderground v.1.15,2013-03-11 11:45:00,
2013-03-11 07:50:00,33.8,30.1,30.33,West,260,3.0,3.0,86,0.00,,,0.00,Wunderground v.1.15,2013-03-11 11:50:00,
2013-03-11 08:00:00,33.9,30.2,30.33,SW,217,1.0,1.0,86,0.00,,,0.00,Wunderground v.1.15,2013-03-11 12:00:00,
2013-03-11 08:05:00,34.1,30.1,30.33,SSW,205,1.0,1.0,85,0.00,,,0.00,Wunderground v.1.15,2013-03-11 12:05:00,
2013-03-11 08:15:00,34.6,30.3,30.33,WSW,241,1.0,1.0,84,0.00,,,0.00,Wunderground v.1.15,2013-03-11 12:15:00,
2013-03-11 08:20:00,35.0,30.4,30.34,WSW,238,1.0,5.0,83,0.00,,,0.00,Wunderground v.1.15,2013-03-11 12:20:00,
2013-03-11 08:25:00,35.4,30.5,30.34,WNW,292,2.0,5.0,82,0.00,,,0.00,Wunderground v.1.15,2013-03-11 12:25:00,
2013-03-11 08:30:00,35.6,30.6,30.34,WSW,244,3.0,3.0,82,0.00,,,0.00,Wunderground v.1.15,2013-03-11 12:30:00,
2013-03-11 08:35:00,35.6,30.6,30.34,SSW,213,2.0,3.0,82,0.00,,,0.00,Wunderground v.1.15,2013-03-11 12:35:00,
2013-03-11 08:40:00,35.9,30.9,30.34,West,281,1.0,1.0,82,0.00,,,0.00,Wunderground v.1.15,2013-03-11 12:40:00,
2013-03-11 08:45:00,36.1,30.8,30.34,SW,219,1.0,1.0,81,0.00,,,0.00,Wunderground v.1.15,2013-03-11 12:45:00,
2013-03-11 08:50:00,36.4,30.8,30.33,SW,219,1.0,1.0,80,0.00,,,0.00,Wunderground v.1.15,2013-03-11 12:50:00,
2013-03-11 08:55:00,36.6,31.0,30.33,NW,324,1.0,2.0,80,0.00,,,0.00,Wunderground v.1.15,2013-03-11 12:55:00,
2013-03-11 09:00:00,36.6,30.7,30.34,NW,305,2.0,2.0,79,0.00,,,0.00,Wunderground v.1.15,2013-03-11 13:00:00,
2013-03-11 09:05:00,36.6,30.7,30.34,NNW,345,2.0,2.0,79,0.00,,,0.00,Wunderground v.1.15,2013-03-11 13:05:00,
2013-03-11 09:10:00,36.8,30.9,30.34,SSW,208,2.0,4.0,79,0.00,,,0.00,Wunderground v.1.15,2013-03-11 13:10:00,
2013-03-11 09:15:00,36.9,30.7,30.33,West,267,2.0,4.0,78,0.00,,,0.00,Wunderground v.1.15,2013-03-11 13:15:00,
2013-03-11 09:20:00,37.3,31.1,30.34,NNW,344,2.0,2.0,78,0.00,,,0.00,Wunderground v.1.15,2013-03-11 13:20:00,
2013-03-11 09:25:00,37.3,31.1,30.33,NE,49,2.0,4.0,78,0.00,,,0.00,Wunderground v.1.15,2013-03-11 13:25:00,
2013-03-11 09:30:00,36.9,30.7,30.33,NE,43,3.0,3.0,78,0.00,,,0.00,Wunderground v.1.15,2013-03-11 13:30:00,
2013-03-11 09:40:00,37.5,31.3,30.33,SSW,213,2.0,4.0,78,0.00,,,0.00,Wunderground v.1.15,2013-03-11 13:40:00,
2013-03-11 09:45:00,37.8,31.2,30.33,SW,217,2.0,4.0,77,0.00,,,0.00,Wunderground v.1.15,2013-03-11 13:45:00,
2013-03-11 09:55:00,38.1,31.2,30.34,WSW,258,3.0,5.0,76,0.00,,,0.00,Wunderground v.1.15,2013-03-11 13:55:00,
2013-03-11 10:00:00,38.4,31.2,30.34,WNW,288,3.0,3.0,75,0.00,,,0.00,Wunderground v.1.15,2013-03-11 14:00:00,
2013-03-11 10:05:00,38.3,30.7,30.34,West,265,4.0,4.0,74,0.00,,,0.00,Wunderground v.1.15,2013-03-11 14:05:00,
2013-03-11 10:10:00,38.0,30.8,30.34,WNW,284,4.0,8.0,75,0.00,,,0.00,Wunderground v.1.15,2013-03-11 14:10:00,
2013-03-11 10:15:00,38.1,30.9,30.34,SSW,197,4.0,8.0,75,0.00,,,0.00,Wunderground v.1.15,2013-03-11 14:15:00,
2013-03-11 10:20:00,38.0,30.8,30.34,SSW,211,4.0,4.0,75,0.00,,,0.00,Wunderground v.1.15,2013-03-11 14:20:00,
2013-03-11 10:25:00,38.4,31.2,30.34,West,259,3.0,4.0,75,0.00,,,0.00,Wunderground v.1.15,2013-03-11 14:25:00,
2013-03-11 10:35:00,39.2,31.6,30.34,SW,217,2.0,4.0,74,0.00,,,0.00,Wunderground v.1.15,2013-03-11 14:35:00,
2013-03-11 10:40:00,39.4,31.5,30.33,SW,217,2.0,6.0,73,0.00,,,0.00,Wunderground v.1.15,2013-03-11 14:40:00,
2013-03-11 10:45:00,39.4,31.1,30.34,SSW,209,3.0,6.0,72,0.00,,,0.00,Wunderground v.1.15,2013-03-11 14:45:00,
2013-03-11 10:50:00,40.0,31.7,30.34,SSE,159,3.0,3.0,72,0.00,,,0.00,Wunderground v.1.15,2013-03-11 14:50:00,
2013-03-11 11:00:00,40.6,31.6,30.34,SW,215,3.0,3.0,70,0.00,,,0.00,Wunderground v.1.15,2013-03-11 15:00:00,
2013-03-11 11:05:00,40.9,31.5,30.33,SW,221,4.0,10.0,69,0.00,,,0.00,Wunderground v.1.15,2013-03-11 15:05:00,
2013-03-11 11:10:00,41.1,31.3,30.33,SW,226,3.0,4.0,68,0.00,,,0.00,Wunderground v.1.15,2013-03-11 15:10:00,
2013-03-11 11:15:00,41.6,31.4,30.33,South,183,3.0,5.0,67,0.00,,,0.00,Wunderground v.1.15,2013-03-11 15:15:00,
2013-03-11 11:20:00,41.8,31.3,30.33,South,182,3.0,5.0,66,0.00,,,0.00,Wunderground v.1.15,2013-03-11 15:20:00,
2013-03-11 11:25:00,42.0,31.1,30.33,SW,219,5.0,5.0,65,0.00,,,0.00,Wunderground v.1.15,2013-03-11 15:25:00,
2013-03-11 11:30:00,42.4,31.1,30.33,SSW,212,4.0,4.0,64,0.00,,,0.00,Wunderground v.1.15,2013-03-11 15:30:00,
2013-03-11 11:35:00,42.8,31.1,30.33,WSW,257,4.0,7.0,63,0.00,,,0.00,Wunderground v.1.15,2013-03-11 15:35:00,
2013-03-11 11:40:00,43.1,31.0,30.33,SW,219,4.0,6.0,62,0.00,,,0.00,Wunderground v.1.15,2013-03-11 15:40:00,
2013-03-11 11:45:00,43.0,30.9,30.32,South,183,5.0,6.0,62,0.00,,,0.00,Wunderground v.1.15,2013-03-11 15:45:00,
2013-03-11 11:50:00,43.2,30.6,30.32,West,268,6.0,6.0,61,0.00,,,0.00,Wunderground v.1.15,2013-03-11 15:50:00,
2013-03-11 11:55:00,43.3,30.3,30.32,SSW,213,6.0,6.0,60,0.00,,,0.00,Wunderground v.1.15,2013-03-11 15:55:00,
2013-03-11 12:00:00,44.0,30.2,30.31,SW,231,5.0,5.0,58,0.00,,,0.00,Wunderground v.1.15,2013-03-11 16:00:00,
2013-03-11 12:05:00,44.4,30.1,30.31,WSW,256,4.0,7.0,57,0.00,,,0.00,Wunderground v.1.15,2013-03-11 16:05:00,
2013-03-11 12:10:00,44.7,29.5,30.32,SSW,200,6.0,6.0,55,0.00,,,0.00,Wunderground v.1.15,2013-03-11 16:10:00,
2013-03-11 12:15:00,45.1,29.4,30.32,WNW,290,7.0,9.0,54,0.00,,,0.00,Wunderground v.1.15,2013-03-11 16:15:00,
2013-03-11 12:25:00,46.0,29.3,30.32,WSW,242,6.0,7.0,52,0.00,,,0.00,Wunderground v.1.15,2013-03-11 16:25:00,
2013-03-11 12:30:00,46.2,29.1,30.32,WSW,250,7.0,10.0,51,0.00,,,0.00,Wunderground v.1.15,2013-03-11 16:30:00,
2013-03-11 12:35:00,46.3,28.7,30.32,SW,221,7.0,10.0,50,0.00,,,0.00,Wunderground v.1.15,2013-03-11 16:35:00,
2013-03-11 12:40:00,46.7,28.5,30.31,WSW,247,6.0,9.0,49,0.00,,,0.00,Wunderground v.1.15,2013-03-11 16:40:00,
2013-03-11 12:45:00,47.5,29.3,30.31,WSW,253,5.0,9.0,49,0.00,,,0.00,Wunderground v.1.15,2013-03-11 16:45:00,
2013-03-11 12:55:00,47.5,27.2,30.31,SSW,209,6.0,12.0,45,0.00,,,0.00,Wunderground v.1.15,2013-03-11 16:55:00,
2013-03-11 13:00:00,47.6,26.7,30.31,SSW,210,7.0,9.0,44,0.00,,,0.00,Wunderground v.1.15,2013-03-11 17:00:00,
2013-03-11 13:05:00,47.4,26.6,30.31,SSW,213,8.0,9.0,44,0.00,,,0.00,Wunderground v.1.15,2013-03-11 17:05:00,
2013-03-11 13:10:00,47.7,26.3,30.31,SW,218,8.0,16.0,43,0.00,,,0.00,Wunderground v.1.15,2013-03-11 17:10:00,
2013-03-11 13:15:00,47.9,26.5,30.31,West,261,9.0,16.0,43,0.00,,,0.00,Wunderground v.1.15,2013-03-11 17:15:00,
2013-03-11 13:25:00,48.2,27.3,30.31,South,178,9.0,13.0,44,0.00,,,0.00,Wunderground v.1.15,2013-03-11 17:25:00,
2013-03-11 13:30:00,48.2,27.3,30.31,West,261,8.0,8.0,44,0.00,,,0.00,Wunderground v.1.15,2013-03-11 17:30:00,
2013-03-11 13:40:00,47.9,27.0,30.30,SW,215,9.0,9.0,44,0.00,,,0.00,Wunderground v.1.15,2013-03-11 17:40:00,
2013-03-11 13:45:00,47.8,26.9,30.30,SW,232,9.0,9.0,44,0.00,,,0.00,Wunderground v.1.15,2013-03-11 17:45:00,
2013-03-11 13:50:00,48.0,27.6,30.30,SW,219,8.0,9.0,45,0.00,,,0.00,Wunderground v.1.15,2013-03-11 17:50:00,
2013-03-11 13:55:00,48.2,27.3,30.30,SW,227,7.0,9.0,44,0.00,,,0.00,Wunderground v.1.15,2013-03-11 17:55:00,
2013-03-11 14:00:00,48.4,27.5,30.30,WSW,246,8.0,14.0,44,0.00,,,0.00,Wunderground v.1.15,2013-03-11 18:00:00,
2013-03-11 14:05:00,48.5,27.6,30.30,SW,219,7.0,14.0,44,0.00,,,0.00,Wunderground v.1.15,2013-03-11 18:05:00,
2013-03-11 14:10:00,48.6,27.1,30.29,WNW,294,6.0,6.0,43,0.00,,,0.00,Wunderground v.1.15,2013-03-11 18:10:00,
2013-03-11 14:15:00,48.7,27.2,30.29,West,267,6.0,6.0,43,0.00,,,0.00,Wunderground v.1.15,2013-03-11 18:15:00,
2013-03-11 14:20:00,48.8,26.7,30.29,WSW,240,6.0,12.0,42,0.00,,,0.00,Wunderground v.1.15,2013-03-11 18:20:00,
2013-03-11 14:25:00,48.9,26.8,30.29,WSW,250,7.0,12.0,42,0.00,,,0.00,Wunderground v.1.15,2013-03-11 18:25:00,
2013-03-11 14:35:00,49.2,26.5,30.29,West,261,7.0,10.0,41,0.00,,,0.00,Wunderground v.1.15,2013-03-11 18:35:00,
2013-03-11 14:40:00,49.3,27.2,30.29,WNW,284,6.0,6.0,42,0.00,,,0.00,Wunderground v.1.15,2013-03-11 18:40:00,
2013-03-11 14:45:00,49.1,26.4,30.28,SW,229,5.0,6.0,41,0.00,,,0.00,Wunderground v.1.15,2013-03-11 18:45:00,
2013-03-11 14:50:00,49.0,26.9,30.28,West,265,6.0,6.0,42,0.00,,,0.00,Wunderground v.1.15,2013-03-11 18:50:00,
2013-03-11 14:55:00,49.0,26.9,30.28,WNW,301,6.0,6.0,42,0.00,,,0.00,Wunderground v.1.15,2013-03-11 18:55:00,
2013-03-11 15:00:00,48.9,26.2,30.28,West,268,7.0,11.0,41,0.00,,,0.00,Wunderground v.1.15,2013-03-11 19:00:00,
2013-03-11 15:10:00,48.7,26.6,30.28,WNW,297,8.0,8.0,42,0.00,,,0.00,Wunderground v.1.15,2013-03-11 19:10:00,
2013-03-11 15:15:00,48.8,26.7,30.29,SSW,209,6.0,8.0,42,0.00,,,0.00,Wunderground v.1.15,2013-03-11 19:15:00,
2013-03-11 15:20:00,48.6,26.5,30.28,WNW,295,6.0,6.0,42,0.00,,,0.00,Wunderground v.1.15,2013-03-11 19:20:00,
2013-03-11 15:25:00,48.4,26.9,30.28,SW,229,6.0,6.0,43,0.00,,,0.00,Wunderground v.1.15,2013-03-11 19:25:00,
2013-03-11 15:30:00,48.3,27.4,30.28,SSW,213,6.0,6.0,44,0.00,,,0.00,Wunderground v.1.15,2013-03-11 19:30:00,
2013-03-11 15:35:00,48.2,27.3,30.28,WSW,237,7.0,7.0,44,0.00,,,0.00,Wunderground v.1.15,2013-03-11 19:35:00,
2013-03-11 15:40:00,48.2,27.3,30.28,SSW,206,6.0,6.0,44,0.00,,,0.00,Wunderground v.1.15,2013-03-11 19:40:00,
2013-03-11 15:45:00,48.1,27.2,30.28,WSW,243,5.0,6.0,44,0.00,,,0.00,Wunderground v.1.15,2013-03-11 19:45:00,
2013-03-11 15:50:00,48.1,27.2,30.27,SW,229,5.0,5.0,44,0.00,,,0.00,Wunderground v.1.15,2013-03-11 19:50:00,
2013-03-11 15:55:00,48.1,27.7,30.27,West,262,5.0,5.0,45,0.00,,,0.00,Wunderground v.1.15,2013-03-11 19:55:00,
2013-03-11 16:00:00,48.1,27.2,30.27,WSW,240,5.0,5.0,44,0.00,,,0.00,Wunderground v.1.15,2013-03-11 20:00:00,
2013-03-11 16:05:00,48.1,27.2,30.27,West,262,5.0,5.0,44,0.00,,,0.00,Wunderground v.1.15,2013-03-11 20:05:00,
2013-03-11 16:10:00,48.0,27.6,30.27,SW,231,5.0,5.0,45,0.00,,,0.00,Wunderground v.1.15,2013-03-11 20:10:00,
2013-03-11 16:15:00,47.9,27.6,30.27,WSW,247,4.0,5.0,45,0.00,,,0.00,Wunderground v.1.15,2013-03-11 20:15:00,
2013-03-11 16:20:00,47.9,27.6,30.27,SW,222,4.0,4.0,45,0.00,,,0.00,Wunderground v.1.15,2013-03-11 20:20:00,
2013-03-11 16:30:00,47.9,27.6,30.27,West,270,4.0,4.0,45,0.00,,,0.00,Wunderground v.1.15,2013-03-11 20:30:00,
2013-03-11 16:35:00,47.8,27.5,30.27,SW,231,4.0,4.0,45,0.00,,,0.00,Wunderground v.1.15,2013-03-11 20:35:00,
2013-03-11 16:40:00,47.8,27.5,30.26,SSW,206,4.0,4.0,45,0.00,,,0.00,Wunderground v.1.15,2013-03-11 20:40:00,
2013-03-11 16:45:00,47.8,27.5,30.26,WSW,241,2.0,4.0,45,0.00,,,0.00,Wunderground v.1.15,2013-03-11 20:45:00,
2013-03-11 16:55:00,47.9,28.1,30.26,SW,236,2.0,3.0,46,0.00,,,0.00,Wunderground v.1.15,2013-03-11 20:55:00,
2013-03-11 17:00:00,47.8,27.5,30.26,West,265,3.0,4.0,45,0.00,,,0.00,Wunderground v.1.15,2013-03-11 21:00:00,
2013-03-11 17:05:00,47.8,27.5,30.26,West,274,4.0,4.0,45,0.00,,,0.00,Wunderground v.1.15,2013-03-11 21:05:00,
2013-03-11 17:10:00,47.8,27.5,30.26,SW,217,4.0,5.0,45,0.00,,,0.00,Wunderground v.1.15,2013-03-11 21:10:00,
2013-03-11 17:15:00,47.8,27.5,30.26,SW,230,3.0,5.0,45,0.00,,,0.00,Wunderground v.1.15,2013-03-11 21:15:00,
2013-03-11 17:25:00,47.5,27.7,30.26,WSW,241,5.0,5.0,46,0.00,,,0.00,Wunderground v.1.15,2013-03-11 21:25:00,
2013-03-11 17:30:00,47.4,27.6,30.26,WSW,245,6.0,6.0,46,0.00,,,0.00,Wunderground v.1.15,2013-03-11 21:30:00,
2013-03-11 17:35:00,47.3,27.5,30.26,WSW,240,6.0,8.0,46,0.00,,,0.00,Wunderground v.1.15,2013-03-11 21:35:00,
2013-03-11 17:40:00,47.2,28.0,30.26,WSW,254,6.0,6.0,47,0.00,,,0.00,Wunderground v.1.15,2013-03-11 21:40:00,
2013-03-11 17:45:00,47.1,27.9,30.26,WSW,245,5.0,10.0,47,0.00,,,0.00,Wunderground v.1.15,2013-03-11 21:45:00,
2013-03-11 17:50:00,47.1,27.9,30.26,SW,230,6.0,6.0,47,0.00,,,0.00,Wunderground v.1.15,2013-03-11 21:50:00,
2013-03-11 17:55:00,47.0,27.8,30.26,South,171,4.0,6.0,47,0.00,,,0.00,Wunderground v.1.15,2013-03-11 21:55:00,
2013-03-11 18:00:00,46.9,27.7,30.26,SW,232,4.0,4.0,47,0.00,,,0.00,Wunderground v.1.15,2013-03-11 22:00:00,
2013-03-11 18:05:00,46.8,28.1,30.26,SSW,213,4.0,4.0,48,0.00,,,0.00,Wunderground v.1.15,2013-03-11 22:05:00,
2013-03-11 18:10:00,46.8,28.1,30.27,WSW,242,4.0,9.0,48,0.00,,,0.00,Wunderground v.1.15,2013-03-11 22:10:00,
2013-03-11 18:15:00,46.7,28.0,30.27,SW,217,5.0,9.0,48,0.00,,,0.00,Wunderground v.1.15,2013-03-11 22:15:00,
2013-03-11 18:20:00,46.7,28.0,30.27,SSW,197,5.0,5.0,48,0.00,,,0.00,Wunderground v.1.15,2013-03-11 22:20:00,
2013-03-11 18:25:00,46.7,28.5,30.27,SSW,208,5.0,5.0,49,0.00,,,0.00,Wunderground v.1.15,2013-03-11 22:25:00,
2013-03-11 18:30:00,46.8,28.6,30.27,WSW,238,6.0,6.0,49,0.00,,,0.00,Wunderground v.1.15,2013-03-11 22:30:00,
2013-03-11 18:35:00,46.7,28.5,30.27,WSW,252,5.0,6.0,49,0.00,,,0.00,Wunderground v.1.15,2013-03-11 22:35:00,
2013-03-11 18:40:00,46.4,28.8,30.27,SW,234,4.0,4.0,50,0.00,,,0.00,Wunderground v.1.15,2013-03-11 22:40:00,
2013-03-11 18:45:00,46.3,28.7,30.27,West,277,3.0,7.0,50,0.00,,,0.00,Wunderground v.1.15,2013-03-11 22:45:00,
2013-03-11 18:50:00,46.2,28.6,30.27,SW,234,4.0,7.0,50,0.00,,,0.00,Wunderground v.1.15,2013-03-11 22:50:00,
2013-03-11 18:55:00,46.1,28.5,30.27,SSW,213,3.0,7.0,50,0.00,,,0.00,Wunderground v.1.15,2013-03-11 22:55:00,
2013-03-11 19:00:00,46.2,28.6,30.27,SSW,207,5.0,5.0,50,0.00,,,0.00,Wunderground v.1.15,2013-03-11 23:00:00,
2013-03-11 19:10:00,45.9,28.3,30.27,SW,214,5.0,7.0,50,0.00,,,0.00,Wunderground v.1.15,2013-03-11 23:10:00,
2013-03-11 19:15:00,45.7,28.6,30.26,SSW,205,5.0,7.0,51,0.00,,,0.00,Wunderground v.1.15,2013-03-11 23:15:00,
2013-03-11 19:20:00,45.7,28.6,30.26,SW,233,5.0,15.0,51,0.00,,,0.00,Wunderground v.1.15,2013-03-11 23:20:00,
2013-03-11 19:25:00,45.8,28.2,30.26,SSW,192,7.0,15.0,50,0.00,,,0.00,Wunderground v.1.15,2013-03-11 23:25:00,
2013-03-11 19:30:00,45.9,28.3,30.26,SW,221,8.0,8.0,50,0.00,,,0.00,Wunderground v.1.15,2013-03-11 23:30:00,
2013-03-11 19:35:00,45.9,28.3,30.26,WSW,240,8.0,8.0,50,0.00,,,0.00,Wunderground v.1.15,2013-03-11 23:35:00,
2013-03-11 19:45:00,45.8,28.2,30.26,SSW,211,8.0,11.0,50,0.00,,,0.00,Wunderground v.1.15,2013-03-11 23:45:00,
2013-03-11 19:50:00,45.7,28.1,30.27,SW,226,8.0,8.0,50,0.00,,,0.00,Wunderground v.1.15,2013-03-11 23:50:00,
2013-03-11 20:00:00,45.4,28.3,30.27,WSW,242,8.0,8.0,51,0.00,,,0.00,Wunderground v.1.15,2013-03-12 00:00:00,
2013-03-11 20:05:00,45.2,28.6,30.27,SW,220,8.0,8.0,52,0.00,,,0.00,Wunderground v.1.15,2013-03-12 00:05:00,
2013-03-11 20:10:00,45.1,28.5,30.27,WSW,238,7.0,8.0,52,0.00,,,0.00,Wunderground v.1.15,2013-03-12 00:10:00,
2013-03-11 20:15:00,45.0,28.4,30.27,SW,217,7.0,9.0,52,0.00,,,0.00,Wunderground v.1.15,2013-03-12 00:15:00,
2013-03-11 20:20:00,44.9,28.8,30.27,SW,217,6.0,7.0,53,0.00,,,0.00,Wunderground v.1.15,2013-03-12 00:20:00,
2013-03-11 20:25:00,44.9,28.8,30.27,WSW,250,6.0,9.0,53,0.00,,,0.00,Wunderground v.1.15,2013-03-12 00:25:00,
2013-03-11 20:35:00,45.0,29.3,30.26,SSW,213,5.0,6.0,54,0.00,,,0.00,Wunderground v.1.15,2013-03-12 00:35:00,
2013-03-11 20:40:00,45.1,29.9,30.27,SW,222,6.0,6.0,55,0.00,,,0.00,Wunderground v.1.15,2013-03-12 00:40:00,
2013-03-11 20:45:00,45.1,29.9,30.27,SW,219,6.0,7.0,55,0.00,,,0.00,Wunderground v.1.15,2013-03-12 00:45:00,
2013-03-11 20:50:00,45.0,29.8,30.26,SSW,194,6.0,6.0,55,0.00,,,0.00,Wunderground v.1.15,2013-03-12 00:50:00,
2013-03-11 20:55:00,45.0,29.8,30.26,SW,236,6.0,6.0,55,0.00,,,0.00,Wunderground v.1.15,2013-03-12 00:55:00,
2013-03-11 21:00:00,44.8,29.6,30.26,WSW,246,5.0,6.0,55,0.00,,,0.00,Wunderground v.1.15,2013-03-12 01:00:00,
2013-03-11 21:05:00,44.7,30.0,30.26,SSW,202,5.0,6.0,56,0.00,,,0.00,Wunderground v.1.15,2013-03-12 01:05:00,
2013-03-11 21:10:00,44.5,30.2,30.25,SW,223,5.0,8.0,57,0.00,,,0.00,Wunderground v.1.15,2013-03-12 01:10:00,
2013-03-11 21:15:00,44.6,30.3,30.25,WSW,249,6.0,8.0,57,0.00,,,0.00,Wunderground v.1.15,2013-03-12 01:15:00,
2013-03-11 21:20:00,44.5,30.2,30.25,SW,234,7.0,10.0,57,0.00,,,0.00,Wunderground v.1.15,2013-03-12 01:20:00,
2013-03-11 21:25:00,44.5,30.6,30.25,WSW,246,7.0,10.0,58,0.00,,,0.00,Wunderground v.1.15,2013-03-12 01:25:00,
2013-03-11 21:30:00,44.4,31.0,30.26,SW,229,7.0,7.0,59,0.00,,,0.00,Wunderground v.1.15,2013-03-12 01:30:00,
2013-03-11 21:40:00,44.2,31.2,30.26,SW,236,6.0,6.0,60,0.00,,,0.00,Wunderground v.1.15,2013-03-12 01:40:00,
2013-03-11 21:50:00,44.0,31.8,30.25,SSW,198,6.0,6.0,62,0.00,,,0.00,Wunderground v.1.15,2013-03-12 01:50:00,
2013-03-11 21:55:00,43.9,31.7,30.25,SSW,192,7.0,7.0,62,0.00,,,0.00,Wunderground v.1.15,2013-03-12 01:55:00,
2013-03-11 22:00:00,43.6,32.2,30.25,South,187,7.0,7.0,64,0.00,,,0.00,Wunderground v.1.15,2013-03-12 02:00:00,
2013-03-11 22:10:00,43.2,33.7,30.25,SSW,198,6.0,6.0,69,0.00,,,0.00,Wunderground v.1.15,2013-03-12 02:10:00,
2013-03-11 22:15:00,43.1,34.3,30.25,West,271,6.0,6.0,71,0.00,,,0.00,Wunderground v.1.15,2013-03-12 02:15:00,
2013-03-11 22:20:00,43.2,34.8,30.25,SW,215,7.0,7.0,72,0.00,,,0.00,Wunderground v.1.15,2013-03-12 02:20:00,
2013-03-11 22:25:00,43.1,35.0,30.25,SW,230,8.0,8.0,73,0.00,,,0.00,Wunderground v.1.15,2013-03-12 02:25:00,
2013-03-11 22:30:00,42.9,35.2,30.25,SSW,193,8.0,8.0,74,0.00,,,0.00,Wunderground v.1.15,2013-03-12 02:30:00,
2013-03-11 22:35:00,42.8,35.4,30.25,SW,221,8.0,9.0,75,0.00,,,0.00,Wunderground v.1.15,2013-03-12 02:35:00,
2013-03-11 22:40:00,42.8,35.4,30.25,SW,225,9.0,9.0,75,0.00,,,0.00,Wunderground v.1.15,2013-03-12 02:40:00,
2013-03-11 22:45:00,42.7,35.7,30.25,SW,228,9.0,9.0,76,0.00,,,0.00,Wunderground v.1.15,2013-03-12 02:45:00,
2013-03-11 22:50:00,42.5,35.8,30.25,SSW,207,9.0,11.0,77,0.00,,,0.00,Wunderground v.1.15,2013-03-12 02:50:00,
2013-03-11 22:55:00,42.3,35.6,30.25,WSW,252,10.0,11.0,77,0.00,,,0.00,Wunderground v.1.15,2013-03-12 02:55:00,
2013-03-11 23:00:00,42.2,35.8,30.25,SW,222,9.0,9.0,78,0.00,,,0.00,Wunderground v.1.15,2013-03-12 03:00:00,
2013-03-11 23:05:00,42.0,35.6,30.24,SW,223,9.0,9.0,78,0.00,,,0.00,Wunderground v.1.15,2013-03-12 03:05:00,
2013-03-11 23:10:00,41.9,35.5,30.24,SW,222,8.0,8.0,78,0.00,,,0.00,Wunderground v.1.15,2013-03-12 03:10:00,
2013-03-11 23:15:00,41.9,35.9,30.24,SW,215,9.0,10.0,79,0.00,,,0.00,Wunderground v.1.15,2013-03-12 03:15:00,
2013-03-11 23:20:00,41.8,35.8,30.24,SW,229,10.0,10.0,79,0.00,,,0.00,Wunderground v.1.15,2013-03-12 03:20:00,
2013-03-11 23:25:00,41.7,35.7,30.24,WSW,241,10.0,10.0,79,0.00,,,0.00,Wunderground v.1.15,2013-03-12 03:25:00,
2013-03-11 23:30:00,41.6,35.9,30.24,West,262,10.0,15.0,80,0.00,,,0.00,Wunderground v.1.15,2013-03-12 03:30:00,
2013-03-11 23:35:00,41.5,35.8,30.24,SW,229,10.0,15.0,80,0.00,,,0.00,Wunderground v.1.15,2013-03-12 03:35:00,
2013-03-11 23:40:00,41.4,35.7,30.24,SW,214,10.0,10.0,80,0.00,,,0.00,Wunderground v.1.15,2013-03-12 03:40:00,
2013-03-11 23:45:00,41.4,35.7,30.23,SW,223,10.0,10.0,80,0.00,,,0.00,Wunderground v.1.15,2013-03-12 03:45:00,
2013-03-11 23:50:00,41.3,35.9,30.24,SW,217,10.0,10.0,81,0.00,,,0.00,Wunderground v.1.15,2013-03-12 03:50:00,
2013-03-11 23:55:00,41.2,35.8,30.24,WSW,237,10.0,10.0,81,0.00,,,0.00,Wunderground v.1.15,2013-03-12 03:55:00,